Flag for Philippines Weather past 2 weeks in Mabalacat, Philippines

Now
82 °F

Partly cloudy.


Feels Like: 86 °F
Forecast: 73 / 89 °F
Wind: 5 mph from Southeast

Location: Clarkfield Pampanga International Airport

Current Time: Oct 24, 2014 at 6:51:46 PM

Latest Report: Oct 24, 2014 at 6:00 PM


Visibility: N/A

Pressure: 29.89 "Hg

Humidity: 66%

Dew point: 70 °F

Location of MabalacatLocation

Historic Weather in Mabalacat — Graph

°F

Mabalacat temperature yesterday

Past Weeks' High & Low Weather Summary

 TemperatureHumidityPressure
High102 °F (Oct 20, 4:00 PM)100% (Oct 9, 10:00 PM)30.04 "Hg (Oct 9, 10:00 PM)
Low73 °F (Oct 12, 1:00 AM)45% (Oct 20, 4:00 PM)29.62 "Hg (Oct 10, 3:00 PM)
Average80 °F83%29.86 "Hg
* Reported Oct 9 5:00 PM — Oct 24 5:00 PM, Mabalacat, Weather by CustomWeather, © 2014

Note: Actual official high and low records may vary slightly from our data, if they occured in-between our weather recording intervals... More about our weather records

Advertising

Mabalacat weather history for previous 24 hours

 ConditionsComfort  
Time TempWeatherWind HumidityBarometerVisibility
5:00 PM
Oct 24
84 °FBroken clouds.12 mph66%29.86 "HgN/A
4:00 PM84 °FBroken clouds.7 mph66%29.86 "HgN/A
3:00 PM86 °FBroken clouds.3 mph59%29.86 "HgN/A
2:00 PM86 °FBroken clouds.5 mph59%29.86 "HgN/A
1:00 PM88 °FBroken clouds.3 mph52%29.89 "HgN/A
12:00 PM86 °FPartly sunny.5 mph55%29.92 "HgN/A
11:00 AM86 °FPartly sunny.8 mph52%29.92 "HgN/A
10:00 AM84 °FPartly sunny.7 mph62%29.95 "HgN/A
9:00 AM82 °FPartly sunny.3 mph66%29.95 "HgN/A
8:00 AM81 °FPartly sunny.3 mph70%29.92 "HgN/A
7:00 AM79 °FPartly sunny.3 mph84%29.92 "HgN/A
6:00 AM77 °FPartly sunny.1 mph83%29.89 "HgN/A
5:00 AM77 °FPassing clouds.2 mph83%29.89 "HgN/A
4:00 AM77 °FPassing clouds.2 mph83%29.89 "HgN/A
3:00 AM77 °FPassing clouds.3 mph83%29.89 "HgN/A
2:00 AM77 °FPassing clouds.2 mph83%29.89 "HgN/A
1:00 AM77 °FPassing clouds.7 mph83%29.89 "HgN/A
12:00 AM79 °FPassing clouds.5 mph79%29.95 "HgN/A
Weather by CustomWeather, © 2014

See weather overviewHow to use our weather pages